Hanford, WA
on Wednesday, February 20, 2013

Wednesday
Previous Day Next Day
Daily Summary
 ActualAverage (KMWH)Record (KMWH)
Temperature
Mean Temperature °F 36°F  
Max Temperature 48°F 46°F 61°F (1982)
Min Temperature 24°F 27°F 14°F (1985)
Degree Days
Heating Degree Days 29 28  
Month to date heating degree days 614  
Since 1 July heating degree days 4288  
Cooling Degree Days 0 0  
Month to date cooling degree days 0  
Year to date cooling degree days 0  
Moisture
Dew Point 26°F   
Average Humidity 68    
Maximum Humidity 93    
Minimum Humidity 44    
Precipitation
Precipitation 0.00 in 0.03 in 0.14 in (1980)
Month to date precipitation 0.60  
Year to date precipitation 1.74  
Wind
Wind Speed 6 mph   
Max Wind Speed 9 mph   
Max Gust Speed mph   
Visibility 15 miles   
Events     

Key: T is trace of precipitation, MM is missing value
Source: NWS Daily Summary
Time(PST)TemperatureDew PointHumidity Pressure Visibility Wind DirectionWind SpeedGust SpeedPrecipitationEvents Conditions
12:50 AM 30.9°F 27.3°F 86% 29.95 in 15.0 miles WSW 9.2 mph - N/A   Mostly Cloudy
1:50 AM 30.0°F 26.1°F 85% 29.96 in 15.0 miles West 3.5 mph - N/A   Scattered Clouds
2:50 AM 28.4°F 24.8°F 86% 29.98 in 15.0 miles WNW 8.1 mph - N/A   Scattered Clouds
3:50 AM 28.0°F 25.0°F 88% 29.98 in 15.0 miles WNW 5.8 mph - N/A   Partly Cloudy
4:50 AM 25.5°F 23.4°F 92% 29.98 in 15.0 miles WSW 6.9 mph - N/A   Partly Cloudy
5:50 AM 24.3°F 22.3°F 92% 30.00 in 15.0 miles WSW 6.9 mph - N/A   Clear
6:50 AM 25.9°F 24.1°F 93% 30.01 in 15.0 miles WSW 5.8 mph - N/A   Clear
7:50 AM 30.7°F 26.1°F 83% 30.02 in 15.0 miles West 4.6 mph - N/A   Clear
8:50 AM 38.7°F 26.1°F 61% 30.02 in 15.0 miles NNW 2.3 mph - N/A   Partly Cloudy
9:50 AM 41.7°F 27.5°F 57% 30.03 in 15.0 miles North 4.6 mph - N/A   Partly Cloudy
10:50 AM 43.7°F 27.0°F 52% 30.03 in 15.0 miles NE 5.8 mph - N/A   Overcast
11:50 AM 47.7°F 29.1°F 49% 30.02 in 15.0 miles SE 4.6 mph - N/A   Overcast
12:50 PM 48.6°F 28.6°F 46% 30.01 in 15.0 miles ESE 8.1 mph - N/A   Overcast
1:50 PM 48.9°F 28.4°F 45% 29.98 in 15.0 miles SSE 5.8 mph - N/A   Overcast
2:50 PM 48.0°F 27.1°F 44% 29.97 in 15.0 miles SSE 8.1 mph - N/A   Overcast
3:50 PM 47.5°F 26.2°F 44% 29.95 in 15.0 miles South 4.6 mph - N/A   Overcast
4:50 PM 45.3°F 27.0°F 49% 29.95 in 15.0 miles NNE 2.3 mph - N/A   Overcast
5:50 PM 41.2°F 27.1°F 57% 29.96 in 15.0 miles East 2.3 mph - N/A   Overcast
6:50 PM 39.4°F 27.1°F 62% 29.97 in 15.0 miles SSW 4.6 mph - N/A   Overcast
9:50 PM 32.7°F 23.2°F 68% 29.99 in 15.0 miles WSW 9.2 mph - N/A   Scattered Clouds
10:50 PM 30.0°F 22.1°F 72% 29.99 in 15.0 miles West 6.9 mph - N/A   Scattered Clouds
11:50 PM 28.2°F 21.7°F 77% 29.99 in 15.0 miles West 5.8 mph - N/A   Clear
Moon Phase
Feb. 20 Feb. 25 Mar. 04 Mar. 11 Mar. 19
Sunrise:06:53 AM (PST) Moon Rise:12:46 PM (PST)2/20
Sunset:05:31 PM (PST) Moon Set:03:28 AM (PST)2/20

Copyright © 2014 The Weather Underground, Inc.